Total_Precipitation_Accumulation
1.40 1.40 1.24 1.21 1.23 1.43 1.68 1.93 1.96 2.15 2.20 1.95 1.55 1.37 1.31 1.19 1.00 0.85 0.75 0.94 1.17 1.14 1.05 1.03 1.01 1.02 1.06 1.01 0.90 0.85 0.75 0.67 0.59 0.48 0.33 0.24 0.32 0.32 0.21 0.11 0.05 0.02 0.02
1.25 1.21 1.20 1.24 1.26 1.25 1.36 1.71 1.91 2.08 1.99 1.74 1.33 1.18 1.13 1.15 1.03 0.93 0.78 0.86 1.06 0.97 0.89 0.95 1.02 1.09 1.13 1.10 0.99 0.92 0.81 0.69 0.58 0.47 0.41 0.35 0.25 0.25 0.28 0.21 0.11 0.05 0.02
0.97 1.01 1.00 0.99 1.04 1.05 1.07 1.19 1.35 1.49 1.41 1.28 1.14 1.15 1.10 1.04 0.93 0.89 0.85 0.83 0.81 0.90 0.83 0.80 0.86 0.94 1.07 1.18 1.14 1.04 0.89 0.74 0.61 0.50 0.39 0.31 0.26 0.17 0.13 0.16 0.19 0.14 0.06
0.58 0.61 0.60 0.58 0.62 0.61 0.65 0.73 0.82 0.91 0.96 1.03 1.08 1.07 1.02 1.00 0.91 0.92 0.86 0.80 0.78 0.73 0.83 0.83 0.80 0.82 0.89 1.01 1.09 1.18 1.09 0.88 0.73 0.63 0.48 0.33 0.24 0.20 0.14 0.13 0.17 0.19 0.13
0.40 0.43 0.42 0.41 0.40 0.38 0.39 0.40 0.49 0.59 0.67 0.74 0.74 0.75 0.73 0.67 0.63 0.63 0.65 0.56 0.57 0.53 0.60 0.72 0.79 0.77 0.82 0.94 1.14 1.33 1.33 1.11 0.86 0.73 0.67 0.51 0.38 0.28 0.21 0.17 0.15 0.16 0.14
0.33 0.36 0.34 0.33 0.29 0.27 0.29 0.34 0.38 0.41 0.42 0.46 0.41 0.41 0.46 0.39 0.37 0.32 0.31 0.32 0.34 0.33 0.38 0.51 0.57 0.54 0.66 0.82 1.01 1.20 1.29 1.27 1.06 0.84 0.83 0.79 0.69 0.50 0.36 0.27 0.19 0.17 0.14
0.28 0.34 0.29 0.32 0.29 0.24 0.24 0.26 0.29 0.30 0.28 0.29 0.28 0.24 0.20 0.20 0.20 0.16 0.16 0.20 0.25 0.30 0.36 0.47 0.48 0.43 0.42 0.55 0.62 0.77 0.96 1.14 1.17 0.98 0.89 0.91 0.87 0.67 0.43 0.38 0.36 0.26 0.19
0.17 0.23 0.30 0.25 0.25 0.25 0.25 0.24 0.26 0.25 0.22 0.24 0.28 0.24 0.16 0.14 0.16 0.11 0.19 0.22 0.25 0.38 0.45 0.48 0.47 0.45 0.41 0.41 0.29 0.35 0.59 0.79 1.00 1.01 0.90 0.85 0.89 0.77 0.51 0.39 0.38 0.37 0.30
0.09 0.14 0.21 0.24 0.27 0.24 0.27 0.32 0.30 0.27 0.21 0.19 0.24 0.29 0.21 0.14 0.16 0.18 0.22 0.24 0.29 0.40 0.46 0.51 0.52 0.53 0.50 0.48 0.45 0.33 0.42 0.49 0.73 0.99 1.02 0.90 0.83 0.76 0.67 0.56 0.45 0.35 0.29
0.07 0.08 0.10 0.15 0.22 0.26 0.33 0.26 0.29 0.30 0.25 0.19 0.19 0.21 0.20 0.20 0.20 0.20 0.24 0.24 0.29 0.36 0.37 0.37 0.40 0.47 0.48 0.42 0.39 0.31 0.26 0.32 0.56 0.88 1.01 1.03 0.92 0.83 0.76 0.70 0.67 0.55 0.38
0.11 0.12 0.12 0.11 0.12 0.19 0.26 0.29 0.35 0.32 0.32 0.27 0.22 0.19 0.20 0.18 0.18 0.16 0.17 0.22 0.23 0.19 0.21 0.26 0.32 0.43 0.42 0.37 0.41 0.34 0.29 0.33 0.45 0.64 0.82 0.97 0.99 0.88 0.76 0.78 0.95 1.03 0.86
0.19 0.19 0.20 0.20 0.19 0.17 0.17 0.19 0.24 0.30 0.35 0.36 0.28 0.22 0.24 0.21 0.16 0.14 0.10 0.11 0.18 0.14 0.15 0.18 0.26 0.36 0.39 0.44 0.43 0.35 0.36 0.43 0.48 0.56 0.64 0.75 0.85 0.82 0.70 0.68 0.84 1.11 1.24
0.23 0.23 0.22 0.24 0.27 0.27 0.25 0.20 0.16 0.20 0.28 0.33 0.30 0.27 0.23 0.18 0.18 0.20 0.15 0.09 0.09 0.09 0.13 0.14 0.22 0.27 0.27 0.43 0.55 0.58 0.49 0.50 0.49 0.51 0.56 0.60 0.68 0.78 0.73 0.67 0.74 0.92 1.12
0.27 0.23 0.21 0.22 0.26 0.30 0.31 0.28 0.22 0.20 0.22 0.26 0.29 0.34 0.29 0.15 0.15 0.20 0.20 0.20 0.16 0.12 0.16 0.19 0.29 0.33 0.32 0.38 0.50 0.60 0.55 0.49 0.42 0.40 0.41 0.42 0.46 0.55 0.62 0.62 0.63 0.69 0.80
0.30 0.24 0.20 0.19 0.22 0.25 0.30 0.31 0.30 0.29 0.27 0.24 0.28 0.35 0.33 0.24 0.17 0.15 0.21 0.26 0.29 0.23 0.19 0.26 0.40 0.46 0.38 0.38 0.41 0.41 0.50 0.50 0.44 0.38 0.32 0.31 0.32 0.32 0.35 0.41 0.46 0.47 0.48
0.15 0.15 0.15 0.15 0.17 0.19 0.23 0.29 0.34 0.40 0.42 0.38 0.33 0.35 0.37 0.35 0.32 0.24 0.23 0.26 0.30 0.30 0.27 0.25 0.39 0.47 0.50 0.41 0.44 0.48 0.49 0.47 0.41 0.37 0.31 0.27 0.28 0.29 0.29 0.28 0.32 0.37 0.38
0.03 0.04 0.06 0.08 0.10 0.12 0.15 0.21 0.27 0.38 0.51 0.59 0.57 0.50 0.44 0.44 0.43 0.37 0.33 0.30 0.30 0.33 0.37 0.39 0.48 0.60 0.63 0.55 0.55 0.52 0.49 0.49 0.40 0.37 0.34 0.31 0.27 0.26 0.28 0.27 0.26 0.25 0.28
0.01 0.01 0.02 0.02 0.03 0.04 0.07 0.11 0.17 0.24 0.37 0.53 0.69 0.72 0.63 0.56 0.51 0.43 0.39 0.36 0.35 0.38 0.44 0.53 0.60 0.67 0.69 0.67 0.63 0.50 0.41 0.39 0.43 0.41 0.36 0.34 0.33 0.29 0.27 0.25 0.24 0.21 0.21
0.01 0.01 0.02 0.02 0.03 0.04 0.06 0.07 0.09 0.11 0.17 0.27 0.44 0.65 0.74 0.72 0.59 0.51 0.45 0.40 0.39 0.40 0.42 0.47 0.58 0.74 0.85 0.83 0.62 0.40 0.34 0.37 0.38 0.47 0.44 0.35 0.32 0.31 0.28 0.24 0.21 0.19 0.18
0.02 0.02 0.03 0.03 0.04 0.04 0.05 0.08 0.09 0.10 0.12 0.14 0.21 0.34 0.52 0.69 0.68 0.60 0.52 0.45 0.45 0.47 0.48 0.49 0.58 0.76 0.93 0.98 0.75 0.47 0.37 0.35 0.35 0.33 0.34 0.31 0.30 0.29 0.27 0.24 0.21 0.19 0.18
0.03 0.05 0.06 0.07 0.07 0.07 0.05 0.07 0.13 0.14 0.16 0.16 0.15 0.17 0.23 0.38 0.53 0.60 0.54 0.50 0.49 0.50 0.52 0.52 0.59 0.76 0.91 0.99 0.77 0.56 0.43 0.39 0.37 0.35 0.29 0.25 0.23 0.21 0.22 0.23 0.24 0.21 0.18
0.09 0.11 0.11 0.12 0.12 0.08 0.06 0.07 0.10 0.15 0.23 0.28 0.25 0.23 0.19 0.18 0.26 0.38 0.46 0.49 0.49 0.47 0.51 0.53 0.58 0.73 0.86 0.90 0.95 0.78 0.58 0.42 0.34 0.34 0.33 0.31 0.29 0.27 0.23 0.20 0.22 0.23 0.22
0.14 0.16 0.16 0.16 0.16 0.16 0.13 0.10 0.07 0.14 0.23 0.31 0.37 0.37 0.23 0.13 0.18 0.25 0.32 0.38 0.40 0.38 0.39 0.46 0.54 0.67 0.94 1.10 1.19 0.94 0.74 0.62 0.49 0.43 0.38 0.35 0.36 0.33 0.28 0.26 0.30 0.27 0.25
0.20 0.21 0.20 0.20 0.22 0.20 0.17 0.12 0.10 0.17 0.24 0.25 0.33 0.41 0.35 0.29 0.28 0.32 0.32 0.31 0.31 0.30 0.28 0.30 0.39 0.58 0.84 1.19 1.35 1.33 1.21 1.00 0.86 0.68 0.50 0.39 0.36 0.32 0.32 0.28 0.33 0.31 0.28
0.23 0.21 0.21 0.24 0.27 0.27 0.23 0.15 0.13 0.23 0.30 0.28 0.30 0.35 0.40 0.39 0.31 0.25 0.30 0.27 0.25 0.26 0.23 0.24 0.31 0.50 0.69 0.94 1.27 1.42 1.36 1.14 0.93 0.71 0.51 0.38 0.33 0.30 0.28 0.26 0.28 0.32 0.30
0.26 0.24 0.22 0.26 0.30 0.33 0.29 0.16 0.13 0.24 0.33 0.33 0.37 0.43 0.46 0.42 0.32 0.21 0.27 0.31 0.25 0.23 0.23 0.23 0.26 0.34 0.49 0.66 0.95 1.10 1.06 0.98 0.83 0.66 0.45 0.36 0.31 0.34 0.30 0.25 0.21 0.22 0.23